EW6377 Hvittingfoss NO current weather conditions

sailwx.info

Wind from 090 at 5 knots gusting 6

Air temperature 1.7° C
Dewpoint -0.6° C

Last reported at 2019-Dec-07 09:09 UTC.
Time now 2019-Dec-07 10:02 UTC

Location: N 59°28' E 010°01'.
View on Google Maps.

See reports from other nearby stations

  
Tides and Currents Weather Stations Pressure Air Temp Water Temp Dewpoint Dewpoint Depression Visibility Wind Speed Wind Dir Waves Ship Positions
date/time (UTC)wind fromknots sea level pressurealtimeterstation pressurevisibilityair tempwater tempwave heightnotes
2019-Dec-07 09:09 090 5 gusting 6 1.7
2019-Dec-07 09:04 090 5 gusting 5 1.1
2019-Dec-07 09:00 090 5 gusting 6 1.1
2019-Dec-07 08:54 090 5 gusting 6 0.6
2019-Dec-07 08:49 090 5 gusting 8 -0.0
2019-Dec-07 08:45 090 3 gusting 8 -0.0
2019-Dec-07 08:39 090 1 gusting 2 -0.6
2019-Dec-07 08:34 090 1 gusting 2 -0.6
2019-Dec-07 08:30 090 1 gusting 2 -0.6
2019-Dec-07 08:24 090 2 gusting 3 -0.6
2019-Dec-07 08:19 090 2 gusting 3 -0.6
2019-Dec-07 08:15 090 1 gusting 2 -0.6
2019-Dec-07 08:09 090 1 gusting 2 -1.1
2019-Dec-07 08:04 090 0 gusting 1 -1.1
2019-Dec-07 08:00 090 0 gusting 1 -1.1
2019-Dec-07 07:54 090 0 gusting 1 -1.1
2019-Dec-07 07:49 090 0 gusting 1 -1.1
2019-Dec-07 07:45 090 0 gusting 1 -1.1
2019-Dec-07 07:39 090 0 gusting 1 -0.6
2019-Dec-07 07:34 090 -0.6
2019-Dec-07 07:30 090 0 gusting 1 -0.6
2019-Dec-07 07:24 090 0 gusting 1 -0.6
2019-Dec-07 07:19 090 0 gusting 1 -0.6
2019-Dec-07 07:15 090 1 gusting 1 -0.6
2019-Dec-07 07:09 090 0 gusting 1 -0.6
2019-Dec-07 07:04 090 -0.6
2019-Dec-07 07:00 090 0 gusting 1 -0.6
2019-Dec-07 06:54 090 0 gusting 1 -0.6
2019-Dec-07 06:49 090 0 gusting 1 -0.6
2019-Dec-07 06:45 090 0 gusting 1 -0.6
2019-Dec-07 06:39 090 0 gusting 1 -0.6
2019-Dec-07 06:34 090 -0.6
2019-Dec-07 06:30 090 0 gusting 1 -0.6
2019-Dec-07 06:24 090 0 gusting 1 -0.6
2019-Dec-07 06:19 090 0 gusting 1 -0.6
2019-Dec-07 06:15 090 0 gusting 1 -0.6
2019-Dec-07 06:09 090 -0.0
2019-Dec-07 06:04 090 0 gusting 1 -0.0
2019-Dec-07 06:00 090 0 gusting 1 -0.0
2019-Dec-07 05:54 090 0 gusting 1 -0.0
2019-Dec-07 05:49 090 0 gusting 1 -0.6
2019-Dec-07 05:45 066 0 gusting 1 -0.0
2019-Dec-07 05:39 009 0 gusting 1 -0.0
2019-Dec-07 05:34 030 1 gusting 1 -0.0
2019-Dec-07 05:30 071 0 gusting 1 -0.0
2019-Dec-07 05:24 090 -0.0
2019-Dec-07 05:19 -0.0
2019-Dec-07 05:15 096 -0.0
2019-Dec-07 05:09 105 0 gusting 1 -0.0
2019-Dec-07 05:04 101 0 gusting 1 -0.0
2019-Dec-07 05:00 093 0 gusting 1 -0.0
2019-Dec-07 04:54 093 -0.0
2019-Dec-07 04:49 071 0.6
2019-Dec-07 04:45 027 0.6
2019-Dec-07 04:39 072 0.6
2019-Dec-07 04:34 090 0 gusting 1 0.6
2019-Dec-07 04:30 070 0 gusting 1 0.6
2019-Dec-07 04:24 048 0.6
2019-Dec-07 04:19 090 0.6
2019-Dec-07 04:15 090 0 gusting 1 0.6
2019-Dec-07 04:09 009 0 gusting 3 0.6
2019-Dec-07 04:04 011 2 gusting 5 0.6
2019-Dec-07 04:00 032 2 gusting 5 0.6
2019-Dec-07 03:54 039 0 gusting 3 0.6
2019-Dec-07 03:49 354 0 gusting 2 0.6
2019-Dec-07 03:45 358 1 gusting 2 0.6
2019-Dec-07 03:39 005 1 gusting 2 0.6
2019-Dec-07 03:34 340 3 gusting 6 0.6
2019-Dec-07 03:30 339 4 gusting 6 0.6
2019-Dec-07 03:24 003 2 gusting 3 0.6
2019-Dec-07 03:19 029 1 gusting 2 0.6
2019-Dec-07 03:15 001 0 gusting 2 0.6
2019-Dec-07 03:09 336 0.6
2019-Dec-07 03:04 070 0.6
2019-Dec-07 03:00 059 0 gusting 3 0.6
2019-Dec-07 02:54 359 2 gusting 6 0.6
2019-Dec-07 02:49 341 1 gusting 6 0.6
2019-Dec-07 02:45 020 0 gusting 1 0.6
2019-Dec-07 02:39 334 0 gusting 1 0.6
2019-Dec-07 02:34 359 0 gusting 1 0.6
2019-Dec-07 02:30 112 0 gusting 1 0.6
2019-Dec-07 02:24 041 0 gusting 1 0.6
2019-Dec-07 02:19 055 0 gusting 1 0.6
2019-Dec-07 02:15 077 0.6
2019-Dec-07 02:09 071 0.6
2019-Dec-07 02:04 106 0.6
2019-Dec-07 02:00 104 0.6
2019-Dec-07 01:54 122 0 gusting 1 0.6
2019-Dec-07 01:49 132 0 gusting 1 0.6
2019-Dec-07 01:45 106 0 gusting 1 0.6
2019-Dec-07 01:39 054 1 gusting 3 0.6
2019-Dec-07 01:34 046 1 gusting 3 0.6
2019-Dec-07 01:30 047 0 gusting 2 0.6
2019-Dec-07 01:24 025 0 gusting 1 0.6
2019-Dec-07 01:19 003 1 gusting 3 0.6
2019-Dec-07 01:15 010 1 gusting 3 0.6
2019-Dec-07 01:09 034 2 gusting 3 0.6
2019-Dec-07 01:04 027 2 gusting 2 0.6
2019-Dec-07 01:00 002 1 gusting 2 0.6
2019-Dec-07 00:54 034 0 gusting 1 0.6
2019-Dec-07 00:49 029 0 gusting 1 0.6
2019-Dec-07 00:45 011 0.6
2019-Dec-07 00:39 358 0 gusting 1 0.6
2019-Dec-07 00:34 347 0 gusting 1 0.6
2019-Dec-07 00:30 335 0.6
2019-Dec-07 00:24 090 1.1
2019-Dec-07 00:19 1.1
2019-Dec-07 00:15 045 1.1
2019-Dec-07 00:09 045 1.1
2019-Dec-07 00:04 1.1
2019-Dec-07 00:00 105 1.1
2019-Dec-06 23:54 099 0 gusting 3 1.1
2019-Dec-06 23:49 047 0 gusting 3 1.1
2019-Dec-06 23:45 008 2 gusting 6 1.1
2019-Dec-06 23:39 004 3 gusting 6 1.1
2019-Dec-06 23:34 350 5 gusting 6 1.1
2019-Dec-06 23:30 344 4 gusting 6 1.1
2019-Dec-06 23:24 345 2 gusting 5 1.1
2019-Dec-06 23:19 359 1 gusting 3 1.1
2019-Dec-06 23:15 018 1 gusting 1 1.1
2019-Dec-06 23:09 002 1 gusting 1 1.1
2019-Dec-06 23:04 359 2 gusting 3 1.1
2019-Dec-06 23:00 007 1 gusting 3 1.1
2019-Dec-06 22:54 003 1 gusting 3 1.1
2019-Dec-06 22:49 007 1 gusting 3 1.1
2019-Dec-06 22:45 023 1 gusting 2 1.1
2019-Dec-06 22:39 035 0 gusting 2 1.1
2019-Dec-06 22:34 086 0 gusting 1 1.1
2019-Dec-06 22:30 082 0 gusting 1 1.1
2019-Dec-06 22:24 075 0 gusting 1 1.1
2019-Dec-06 22:19 056 0 gusting 1 1.1
2019-Dec-06 22:15 013 2 gusting 6 1.1
2019-Dec-06 22:09 352 4 gusting 6 1.1
2019-Dec-06 22:04 334 3 gusting 6 1.1
2019-Dec-06 22:00 346 1 gusting 3 1.1
2019-Dec-06 21:54 037 0 gusting 2 1.1
2019-Dec-06 21:49 050 0 gusting 1 1.1
2019-Dec-06 21:45 020 1.1
2019-Dec-06 21:39 001 1.1
2019-Dec-06 21:34 005 1.1
2019-Dec-06 21:30 351 0 gusting 1 1.1
2019-Dec-06 21:24 346 0 gusting 1 1.1
2019-Dec-06 21:19 023 0 gusting 1 1.1
2019-Dec-06 21:15 039 0 gusting 1 1.1
2019-Dec-06 21:09 332 0 gusting 1 1.1
2019-Dec-06 21:04 329 0 gusting 1 1.1
2019-Dec-06 21:00 088 0 gusting 1 1.1
2019-Dec-06 20:54 097 0 gusting 1 1.1
2019-Dec-06 20:49 080 0 gusting 1 1.1
2019-Dec-06 20:45 051 0 gusting 1 1.1
2019-Dec-06 20:39 043 1 gusting 2 1.1
2019-Dec-06 20:34 359 1 gusting 2 1.1
2019-Dec-06 20:30 341 1 gusting 2 1.1
2019-Dec-06 20:24 346 0 gusting 1 1.1
2019-Dec-06 20:19 024 0 gusting 1 1.1
2019-Dec-06 20:15 042 0 gusting 1 1.1
2019-Dec-06 20:09 046 1.1
2019-Dec-06 20:04 1.1
2019-Dec-06 20:00 1.1
2019-Dec-06 19:54 1.1
2019-Dec-06 19:49 1.1
2019-Dec-06 19:45 1.1
2019-Dec-06 19:39 001 1.1
2019-Dec-06 19:34 355 1.1
2019-Dec-06 19:30 004 0 gusting 1 1.1
2019-Dec-06 19:24 009 0 gusting 1 1.1
2019-Dec-06 19:19 001 1.1
2019-Dec-06 19:15 1.1
2019-Dec-06 19:09 1.1
2019-Dec-06 19:04 1.1
2019-Dec-06 19:00 1.1
2019-Dec-06 18:54 090 1.1
2019-Dec-06 18:49 090 1.1
2019-Dec-06 18:45 046 1.1
2019-Dec-06 18:39 046 1.1
2019-Dec-06 18:34 090 1.1
2019-Dec-06 18:30 090 0 gusting 1 1.1
2019-Dec-06 18:24 090 0 gusting 1 1.7
2019-Dec-06 18:19 090 1.7
2019-Dec-06 18:15 1.1
2019-Dec-06 18:09 1.1
2019-Dec-06 18:04 1.1
2019-Dec-06 18:00 001 1.7
2019-Dec-06 17:54 001 1.7
2019-Dec-06 17:49 001 1.7
2019-Dec-06 17:45 1.7
2019-Dec-06 17:39 001 1.7
2019-Dec-06 17:34 033 0 gusting 1 1.7
2019-Dec-06 17:30 070 1 gusting 1 1.7
2019-Dec-06 17:24 090 0 gusting 1 1.7
2019-Dec-06 17:19 080 1.7
2019-Dec-06 17:15 064 1.7
2019-Dec-06 17:09 344 0 gusting 1 1.7
2019-Dec-06 17:04 331 0 gusting 1 1.7
2019-Dec-06 17:00 006 1.7
2019-Dec-06 16:54 123 0 gusting 1 1.7
2019-Dec-06 16:49 011 1 gusting 1 1.7
2019-Dec-06 16:45 334 0 gusting 1 1.7
2019-Dec-06 16:39 052 0 gusting 1 1.7
2019-Dec-06 16:34 093 1 gusting 1 2.2
2019-Dec-06 16:30 090 0 gusting 1 1.7
2019-Dec-06 16:24 090 1.7
2019-Dec-06 16:19 110 1.7
2019-Dec-06 16:15 135 1.7
2019-Dec-06 16:09 010 0 gusting 1 2.2
2019-Dec-06 16:04 355 0 gusting 2 2.2
2019-Dec-06 16:00 023 1 gusting 2 2.2
2019-Dec-06 15:54 080 0 gusting 1 2.2
2019-Dec-06 15:49 076 0 gusting 1 2.2
2019-Dec-06 15:45 079 0 gusting 1 2.2
2019-Dec-06 15:39 093 0 gusting 1 2.2
2019-Dec-06 15:34 090 0 gusting 2 2.2
2019-Dec-06 15:30 110 2 gusting 3 2.2
2019-Dec-06 15:24 118 2 gusting 5 1.7
2019-Dec-06 15:19 116 0 gusting 5 1.7
2019-Dec-06 15:15 135 1.1
2019-Dec-06 15:09 135 1.1
2019-Dec-06 15:04 135 1.1
2019-Dec-06 15:00 014 0 gusting 1 1.1
2019-Dec-06 14:54 048 0 gusting 1 1.7
2019-Dec-06 14:49 102 1.7
2019-Dec-06 14:45 051 1.7
2019-Dec-06 14:39 059 0 gusting 1 1.7
2019-Dec-06 14:34 067 0 gusting 1 1.7
2019-Dec-06 14:30 116 0 gusting 1 1.7
2019-Dec-06 14:24 109 0 gusting 1 1.7
2019-Dec-06 14:19 092 0 gusting 1 1.7
2019-Dec-06 14:15 090 1.7
2019-Dec-06 14:09 1.7
2019-Dec-06 14:04 001 1.7
2019-Dec-06 14:00 353 0 gusting 1 1.7
2019-Dec-06 13:54 334 0 gusting 1 1.7
2019-Dec-06 13:49 119 0 gusting 1 1.7
2019-Dec-06 13:45 075 0 gusting 1 1.7
2019-Dec-06 13:39 041 0 gusting 1 1.7
2019-Dec-06 13:34 056 0 gusting 1 1.7
2019-Dec-06 13:30 116 0 gusting 1 1.7
2019-Dec-06 13:24 121 1.7
2019-Dec-06 13:19 033 1.7
2019-Dec-06 13:15 030 1.7
2019-Dec-06 13:09 045 2.2
2019-Dec-06 13:04 045 2.2
2019-Dec-06 13:00 064 0 gusting 1 2.2
2019-Dec-06 12:54 063 0 gusting 1 2.2
2019-Dec-06 12:49 074 0 gusting 1 2.2
2019-Dec-06 12:45 116 0 gusting 1 1.7
2019-Dec-06 12:39 102 0 gusting 1 1.7
2019-Dec-06 12:34 033 0 gusting 1 1.7
2019-Dec-06 12:30 057 0 gusting 1 1.7
2019-Dec-06 12:24 121 0 gusting 1 1.7
2019-Dec-06 12:19 056 0 gusting 1 2.2
2019-Dec-06 12:15 039 0 gusting 1 1.7
2019-Dec-06 12:09 046 2.2
2019-Dec-06 12:04 073 0 gusting 1 2.2
2019-Dec-06 12:00 074 0 gusting 1 2.2
2019-Dec-06 11:54 070 0 gusting 1 2.2
2019-Dec-06 11:49 036 0 gusting 1 2.2
2019-Dec-06 11:45 038 0 gusting 1 2.2
2019-Dec-06 11:39 352 0 gusting 1 2.2
2019-Dec-06 11:34 009 0 gusting 1 2.2
2019-Dec-06 11:30 069 0 gusting 1 2.8
2019-Dec-06 11:24 081 0 gusting 1 2.8
2019-Dec-06 11:19 072 0 gusting 1 2.8
2019-Dec-06 11:15 067 0 gusting 1 2.8
2019-Dec-06 11:09 084 0 gusting 1 2.2
2019-Dec-06 11:04 068 0 gusting 1 2.2
2019-Dec-06 11:00 074 0 gusting 1 2.2
2019-Dec-06 10:54 087 0 gusting 1 2.2
2019-Dec-06 10:49 083 0 gusting 1 2.2
2019-Dec-06 10:45 101 1 gusting 1 2.2
2019-Dec-06 10:39 123 1 gusting 2 2.2
2019-Dec-06 10:34 129 1 gusting 2 1.7
2019-Dec-06 10:30 029 0 gusting 1 1.7
2019-Dec-06 10:24 011 1 gusting 3 1.7
2019-Dec-06 10:19 042 1 gusting 3 1.7
2019-Dec-06 10:15 083 1 gusting 2 1.7
2019-Dec-06 10:09 089 1 gusting 2 1.7
2019-Dec-06 10:04 065 0 gusting 1 1.7
2019-Dec-06 10:00 059 0 gusting 1 1.7
2019-Dec-06 09:54 070 1 gusting 1 1.7
2019-Dec-06 09:49 064 0 gusting 1 1.7
2019-Dec-06 09:45 090 0 gusting 2 1.7
2019-Dec-06 09:39 115 0 gusting 2 1.7
2019-Dec-06 09:34 112 0 gusting 1 1.7
2019-Dec-06 09:30 093 0 gusting 1 1.7
2019-Dec-06 09:24 085 0 gusting 1 1.7
2019-Dec-06 09:19 093 0 gusting 1 1.1
2019-Dec-06 09:15 126 0 gusting 1 1.1
2019-Dec-06 09:09 172 1.1
2019-Dec-06 09:04 135 1.1
2019-Dec-06 09:00 110 1.1
2019-Dec-06 08:54 087 0 gusting 1 1.7
2019-Dec-06 08:49 089 0 gusting 1 1.7
2019-Dec-06 08:45 097 1 gusting 2 1.7
2019-Dec-06 08:39 090 1 gusting 3 1.7
2019-Dec-06 08:34 084 1 gusting 3 1.7
2019-Dec-06 08:30 089 0 gusting 1 1.7
2019-Dec-06 08:24 080 0 gusting 1 1.7
2019-Dec-06 08:19 080 0 gusting 1 1.1
2019-Dec-06 08:15 069 0 gusting 1 1.1
2019-Dec-06 08:09 055 0 gusting 1 1.1
2019-Dec-06 08:04 068 0 gusting 1 1.1
2019-Dec-06 08:00 062 0 gusting 1 1.1
2019-Dec-06 07:54 068 0 gusting 1 1.1
2019-Dec-06 07:49 075 1 gusting 1 1.1
2019-Dec-06 07:45 071 0 gusting 1 1.1
2019-Dec-06 07:39 070 0 gusting 1 1.1
2019-Dec-06 07:34 079 0 gusting 1 1.1
2019-Dec-06 07:30 096 0 gusting 1 0.6
2019-Dec-06 07:24 092 0 gusting 1 0.6
2019-Dec-06 07:19 087 0 gusting 1 0.6
2019-Dec-06 07:15 074 0 gusting 1 0.6
2019-Dec-06 07:09 054 0 gusting 1 0.6
2019-Dec-06 07:04 059 0 gusting 1 0.6
2019-Dec-06 07:00 080 0 gusting 1 0.6
2019-Dec-06 06:54 028 0 gusting 1 0.6
2019-Dec-06 06:49 039 0 gusting 1 1.1
2019-Dec-06 06:45 071 0 gusting 1 1.7
2019-Dec-06 06:39 086 1 gusting 3 1.7
2019-Dec-06 06:34 110 1 gusting 3 1.1
2019-Dec-06 06:30 091 1 gusting 2 1.1
2019-Dec-06 06:24 038 1 gusting 2 1.7
2019-Dec-06 06:19 068 1 gusting 1 1.7
2019-Dec-06 06:15 088 0 gusting 1 1.7
2019-Dec-06 06:09 095 1 gusting 1 1.7
2019-Dec-06 06:04 100 1 gusting 1 1.7
2019-Dec-06 06:00 053 1 gusting 3 1.1
2019-Dec-06 05:54 043 1 gusting 3 1.7
2019-Dec-06 05:49 082 0 gusting 1 1.7
2019-Dec-06 05:45 078 0 gusting 1 1.1
2019-Dec-06 05:39 103 1 gusting 1 1.1
2019-Dec-06 05:34 090 1 gusting 1 1.7
2019-Dec-06 05:30 037 0 gusting 1 1.7
2019-Dec-06 05:24 041 0 gusting 1 1.7
2019-Dec-06 05:19 064 0 gusting 1 2.2
2019-Dec-06 05:15 077 0 gusting 1 2.2
2019-Dec-06 05:09 090 1 gusting 1 2.2
2019-Dec-06 05:04 090 1 gusting 1 2.2
2019-Dec-06 05:00 090 0 gusting 1 2.2
2019-Dec-06 04:54 100 0 gusting 1 2.2
2019-Dec-06 04:49 094 0 gusting 1 2.2
2019-Dec-06 04:45 075 0 gusting 1 2.2
2019-Dec-06 04:39 068 0 gusting 1 2.2
2019-Dec-06 04:34 086 0 gusting 1 2.8
2019-Dec-06 04:30 093 0 gusting 1 2.8
2019-Dec-06 04:24 106 0 gusting 1 2.8
2019-Dec-06 04:19 077 1 gusting 1 2.8
2019-Dec-06 04:15 043 0 gusting 1 2.8
2019-Dec-06 04:09 064 0 gusting 1 3.3
2019-Dec-06 04:04 081 0 gusting 1 3.3
2019-Dec-06 04:00 093 1 gusting 1 3.3
2019-Dec-06 03:54 082 1 gusting 1 3.3
2019-Dec-06 03:49 074 0 gusting 1 3.3
2019-Dec-06 03:45 090 0 gusting 1 2.8
2019-Dec-06 03:39 026 0 gusting 3 3.3
2019-Dec-06 03:34 337 2 gusting 3 3.3
2019-Dec-06 03:30 320 1 gusting 3 3.3
2019-Dec-06 03:24 090 3.3
2019-Dec-06 03:19 090 0 gusting 1 3.3
2019-Dec-06 03:15 084 0 gusting 1 3.3
2019-Dec-06 03:09 062 0 gusting 1 3.3
2019-Dec-06 03:04 060 0 gusting 1 3.3
2019-Dec-06 03:00 083 0 gusting 1 3.3
2019-Dec-06 02:54 086 0 gusting 1 3.3
2019-Dec-06 02:49 090 0 gusting 1 3.3
2019-Dec-06 02:45 084 1 gusting 1 3.9
2019-Dec-06 02:39 071 0 gusting 1 3.9
2019-Dec-06 02:34 053 0 gusting 1 3.9
2019-Dec-06 02:30 092 1 gusting 3 4.4
2019-Dec-06 02:24 117 2 gusting 4 4.4
2019-Dec-06 02:19 131 3 gusting 4 4.4
2019-Dec-06 02:15 123 4 gusting 4 4.4
2019-Dec-06 02:09 105 3 gusting 4 4.4
2019-Dec-06 02:04 107 3 gusting 4 4.4
2019-Dec-06 02:00 131 3 gusting 5 4.4
2019-Dec-06 01:54 147 4 gusting 6 4.4
2019-Dec-06 01:49 135 5 gusting 6 4.4
2019-Dec-06 01:45 130 5 gusting 6 4.4
2019-Dec-06 01:39 134 6 gusting 8 4.4
2019-Dec-06 01:34 135 6 gusting 8 4.4
2019-Dec-06 01:30 143 6 gusting 7 4.4
2019-Dec-06 01:24 130 6 gusting 7 5.0
2019-Dec-06 01:19 129 5 gusting 7 5.0
2019-Dec-06 01:15 147 5 gusting 6 5.0
2019-Dec-06 01:09 162 5 gusting 6 5.0
2019-Dec-06 01:04 158 4 gusting 4 5.0
2019-Dec-06 01:00 127 4 gusting 6 5.0
2019-Dec-06 00:54 133 4 gusting 6 5.0
2019-Dec-06 00:49 136 4 gusting 6 5.0
2019-Dec-06 00:45 128 4 gusting 6 5.0
2019-Dec-06 00:39 130 4 gusting 6 5.0
2019-Dec-06 00:34 139 4 gusting 6 5.0
2019-Dec-06 00:30 140 3 gusting 6 5.0
2019-Dec-06 00:24 136 3 gusting 6 5.0
2019-Dec-06 00:19 127 3 gusting 6 5.0
2019-Dec-06 00:15 151 4 gusting 6 5.0
2019-Dec-06 00:09 160 3 gusting 6 5.0
2019-Dec-06 00:04 127 2 gusting 4 5.0
2019-Dec-06 00:00 129 3 gusting 5 5.0
2019-Dec-05 23:54 143 3 gusting 5 5.0
2019-Dec-05 23:49 160 3 gusting 4 5.0
2019-Dec-05 23:45 138 3 gusting 4 5.0
2019-Dec-05 23:39 132 4 gusting 6 5.0
2019-Dec-05 23:34 141 5 gusting 6 5.0
2019-Dec-05 23:30 151 4 gusting 6 5.0
2019-Dec-05 23:24 152 4 gusting 7 5.0
2019-Dec-05 23:19 144 4 gusting 7 5.0
2019-Dec-05 23:15 152 4 gusting 7 5.0
2019-Dec-05 23:09 111 5 gusting 6 5.6
2019-Dec-05 23:04 116 6 gusting 7 5.6
2019-Dec-05 23:00 141 6 gusting 9 5.6
2019-Dec-05 22:54 135 6 gusting 9 5.6
2019-Dec-05 22:49 125 6 gusting 8 5.6
2019-Dec-05 22:45 130 6 gusting 9 5.6
2019-Dec-05 22:39 138 6 gusting 9 5.6
2019-Dec-05 22:34 138 6 gusting 7 5.6
2019-Dec-05 22:30 140 5 gusting 7 5.6
2019-Dec-05 22:24 134 4 gusting 5 5.6
2019-Dec-05 22:19 135 4 gusting 6 5.6
2019-Dec-05 22:15 136 5 gusting 9 5.6
2019-Dec-05 22:09 142 7 gusting 11 5.6
2019-Dec-05 22:04 154 6 gusting 11 5.6
2019-Dec-05 22:00 154 6 gusting 9 5.6
2019-Dec-05 21:54 131 6 gusting 9 5.6
2019-Dec-05 21:49 123 6 gusting 8 6.1
2019-Dec-05 21:45 138 7 gusting 9 6.1
2019-Dec-05 21:39 146 7 gusting 9 6.1
2019-Dec-05 21:34 144 7 gusting 9 6.1
2019-Dec-05 21:30 131 8 gusting 10 6.1
2019-Dec-05 21:24 137 8 gusting 11 6.1
2019-Dec-05 21:19 137 7 gusting 11 6.1
2019-Dec-05 21:15 121 7 gusting 11 6.1
2019-Dec-05 21:09 129 7 gusting 8 6.1
2019-Dec-05 21:04 132 7 gusting 9 6.1
2019-Dec-05 21:00 143 6 gusting 9 6.1
2019-Dec-05 20:54 151 6 gusting 11 6.1
2019-Dec-05 20:49 136 7 gusting 11 6.1
2019-Dec-05 20:45 134 7 gusting 11 6.1
2019-Dec-05 20:39 142 8 gusting 10 6.1
2019-Dec-05 20:34 141 8 gusting 10 6.1
2019-Dec-05 20:30 135 8 gusting 11 6.1
2019-Dec-05 20:24 123 7 gusting 11 6.1
2019-Dec-05 20:19 130 7 gusting 13 6.1
2019-Dec-05 20:15 133 8 gusting 13 6.1
2019-Dec-05 20:09 129 9 gusting 14 6.1
2019-Dec-05 20:04 129 10 gusting 14 6.1
2019-Dec-05 20:00 124 10 gusting 13 6.1
2019-Dec-05 19:54 126 9 gusting 13 6.1
2019-Dec-05 19:49 139 8 gusting 13 5.6
2019-Dec-05 19:45 146 7 gusting 11 5.6
2019-Dec-05 19:40 136 8 gusting 11 5.6
2019-Dec-05 19:34 136 8 gusting 10 5.6
2019-Dec-05 19:30 136 7 gusting 10 5.6
2019-Dec-05 19:24 133 8 gusting 10 5.6
2019-Dec-05 19:19 131 9 gusting 10 5.6
2019-Dec-05 19:15 134 8 gusting 10 5.6
2019-Dec-05 19:09 138 9 gusting 9 5.6
2019-Dec-05 19:04 152 10 gusting 10 5.6
2019-Dec-05 19:00 148 10 gusting 13 5.6
2019-Dec-05 18:55 125 8 gusting 13 5.6
2019-Dec-05 18:49 128 8 gusting 10 5.6
2019-Dec-05 18:45 128 9 gusting 13 5.6
2019-Dec-05 18:39 130 10 gusting 13 6.1
2019-Dec-05 18:34 145 9 gusting 13 5.6
2019-Dec-05 18:30 139 8 gusting 13 5.6
2019-Dec-05 18:24 143 7 gusting 13 5.6
2019-Dec-05 18:20 150 7 gusting 19 5.6
2019-Dec-05 18:15 123 7 gusting 19 5.6
2019-Dec-05 18:09 130 5 gusting 12 5.0
2019-Dec-05 18:04 140 2 gusting 6 5.0
2019-Dec-05 18:00 083 1 gusting 3 5.0
2019-Dec-05 17:54 102 3 gusting 6 5.0
2019-Dec-05 17:50 107 3 gusting 6 5.0
2019-Dec-05 17:45 100 3 gusting 6 5.0
2019-Dec-05 17:39 128 4 gusting 6 5.0
2019-Dec-05 17:34 142 4 gusting 6 5.0
2019-Dec-05 17:30 133 3 gusting 6 5.0
2019-Dec-05 17:24 127 2 gusting 6 5.0
2019-Dec-05 17:19 124 3 gusting 6 5.0
2019-Dec-05 17:15 127 3 gusting 6 5.6
2019-Dec-05 17:10 267 4 gusting 6 5.6
2019-Dec-05 17:04 266 4 gusting 8 5.6
2019-Dec-05 17:00 106 5 gusting 8 5.6
2019-Dec-05 16:54 123 5 gusting 9 5.6
2019-Dec-05 16:49 139 6 gusting 9 5.6
2019-Dec-05 16:45 133 7 gusting 10 5.6
2019-Dec-05 16:39 128 7 gusting 10 5.6
2019-Dec-05 16:34 122 7 gusting 10 5.6
2019-Dec-05 16:30 133 7 gusting 9 5.6
2019-Dec-05 16:25 134 7 gusting 9 5.6
2019-Dec-05 16:20 119 7 gusting 12 5.6
2019-Dec-05 16:15 137 6 gusting 12 5.6
2019-Dec-05 16:09 154 6 gusting 7 5.6
2019-Dec-05 16:04 142 5 gusting 7 5.0
2019-Dec-05 16:00 106 5 gusting 6 5.0
2019-Dec-05 15:54 092 5 gusting 6 5.0
2019-Dec-05 15:49 132 5 gusting 6 5.0
2019-Dec-05 15:45 145 5 gusting 6 5.0
2019-Dec-05 15:39 140 5 gusting 6 5.0
2019-Dec-05 15:34 135 5 gusting 6 5.0
2019-Dec-05 15:30 133 5 gusting 6 5.0
2019-Dec-05 15:24 134 4 gusting 6 5.0
2019-Dec-05 15:19 133 4 gusting 6 5.0
2019-Dec-05 15:15 142 5 gusting 6 5.0
2019-Dec-05 15:09 162 5 gusting 6 5.0
2019-Dec-05 15:04 159 5 gusting 6 5.0
2019-Dec-05 15:00 149 5 gusting 6 5.0
2019-Dec-05 14:54 138 4 gusting 6 5.0
2019-Dec-05 14:49 118 3 gusting 6 5.0
2019-Dec-05 14:45 136 5 gusting 9 5.0
2019-Dec-05 14:39 133 6 gusting 9 5.0
2019-Dec-05 14:34 141 5 gusting 6 5.0
2019-Dec-05 14:30 145 4 gusting 6 4.4
2019-Dec-05 14:24 143 3 gusting 5 4.4
2019-Dec-05 14:19 152 3 gusting 5 4.4
2019-Dec-05 14:15 131 2 gusting 5 4.4
2019-Dec-05 14:09 130 2 gusting 3 4.4
2019-Dec-05 14:04 125 3 gusting 6 5.0
2019-Dec-05 14:00 101 5 gusting 8 5.0
2019-Dec-05 13:54 123 6 gusting 8 5.0
2019-Dec-05 13:49 150 5 gusting 8 5.0
2019-Dec-05 13:45 135 5 gusting 8 5.0
2019-Dec-05 13:39 132 6 gusting 8 5.0
2019-Dec-05 13:34 136 6 gusting 11 5.0
2019-Dec-05 13:30 141 6 gusting 11 5.0
2019-Dec-05 13:24 127 6 gusting 10 5.0
2019-Dec-05 13:19 117 6 gusting 10 5.0
2019-Dec-05 13:15 158 7 gusting 9 5.0
2019-Dec-05 13:09 156 6 gusting 8 5.0
2019-Dec-05 13:04 149 6 gusting 11 5.0
2019-Dec-05 13:00 157 7 gusting 11 5.0
2019-Dec-05 12:54 149 7 gusting 15 5.0
2019-Dec-05 12:49 163 8 gusting 15 5.0
2019-Dec-05 12:45 168 7 gusting 9 5.0
2019-Dec-05 12:39 155 6 gusting 9 5.0
2019-Dec-05 12:34 142 6 gusting 9 5.0
2019-Dec-05 12:30 134 6 gusting 10 5.0
2019-Dec-05 12:24 144 8 gusting 13 5.0
2019-Dec-05 12:19 143 7 gusting 13 5.0
2019-Dec-05 12:15 145 7 gusting 11 5.0
2019-Dec-05 12:10 140 6 gusting 11 5.0
2019-Dec-05 12:04 160 7 gusting 12 5.0
2019-Dec-05 12:00 175 9 gusting 12 5.0
2019-Dec-05 11:54 162 7 gusting 12 4.4
2019-Dec-05 11:50 136 6 gusting 7 4.4
2019-Dec-05 11:45 127 5 gusting 7 5.0
2019-Dec-05 11:40 137 6 gusting 12 4.4
2019-Dec-05 11:35 129 7 gusting 12 4.4
2019-Dec-05 11:30 140 6 gusting 8 4.4
2019-Dec-05 11:25 144 5 gusting 7 4.4
2019-Dec-05 11:20 105 5 gusting 7 4.4
2019-Dec-05 11:15 123 6 gusting 9 4.4
2019-Dec-05 11:10 137 7 gusting 9 4.4
2019-Dec-05 11:04 132 7 gusting 9 4.4
2019-Dec-05 11:00 133 6 gusting 9 4.4
2019-Dec-05 10:54 146 6 gusting 9 4.4
2019-Dec-05 10:49 143 7 gusting 9 4.4
2019-Dec-05 10:45 138 6 gusting 9 4.4
2019-Dec-05 10:40 153 6 gusting 9 4.4
2019-Dec-05 10:34 151 6 gusting 7 4.4
2019-Dec-05 10:30 154 6 gusting 11 4.4
2019-Dec-05 10:24 163 6 gusting 11 4.4
2019-Dec-05 10:20 157 6 gusting 9 4.4
2019-Dec-05 10:15 165 6 gusting 9 4.4
2019-Dec-05 10:09 150 6 gusting 9 4.4
2019-Dec-05 10:04 151 6 gusting 9 4.4
2019-Dec-05 10:00 167 6 gusting 10 4.4